Year,Month,Day,Hour,Minute,Value (Times are PST for temperature in C)
2021,06,26,00,00,30.60
2021,06,26,00,01,30.60
2021,06,26,00,02,30.50
2021,06,26,00,03,30.50
2021,06,26,00,04,30.40
2021,06,26,00,05,30.40
2021,06,26,00,06,30.40
2021,06,26,00,07,30.30
2021,06,26,00,08,30.30
2021,06,26,00,09,30.30
2021,06,26,00,10,30.30
2021,06,26,00,11,30.20
2021,06,26,00,12,30.20
2021,06,26,00,13,30.20
2021,06,26,00,14,30.20
2021,06,26,00,15,30.10
2021,06,26,00,16,30.10
2021,06,26,00,17,30.10
2021,06,26,00,18,30.10
2021,06,26,00,19,30.00
2021,06,26,00,20,30.00
2021,06,26,00,21,29.90
2021,06,26,00,22,29.90
2021,06,26,00,23,29.90
2021,06,26,00,24,29.90
2021,06,26,00,25,29.80
2021,06,26,00,26,29.80
2021,06,26,00,27,29.80
2021,06,26,00,28,29.80
2021,06,26,00,29,29.80
2021,06,26,00,30,29.80
2021,06,26,00,31,29.80
2021,06,26,00,32,29.80
2021,06,26,00,33,29.80
2021,06,26,00,34,29.80
2021,06,26,00,35,29.80
2021,06,26,00,36,29.80
2021,06,26,00,37,29.80
2021,06,26,00,38,29.80
2021,06,26,00,39,29.80
2021,06,26,00,40,29.80
2021,06,26,00,41,29.80
2021,06,26,00,42,29.90
2021,06,26,00,43,29.90
2021,06,26,00,44,29.90
2021,06,26,00,45,29.90
2021,06,26,00,46,29.90
2021,06,26,00,47,29.90
2021,06,26,00,48,29.90
2021,06,26,00,49,29.90
2021,06,26,00,50,29.80
2021,06,26,00,51,29.80
2021,06,26,00,52,29.80
2021,06,26,00,53,29.80
2021,06,26,00,54,29.80
2021,06,26,00,55,29.80
2021,06,26,00,56,29.80
2021,06,26,00,57,29.70
2021,06,26,00,58,29.70
2021,06,26,00,59,29.70
2021,06,26,01,00,29.70
2021,06,26,01,01,29.70
2021,06,26,01,02,29.70
2021,06,26,01,03,29.70
2021,06,26,01,04,29.60
2021,06,26,01,05,29.60
2021,06,26,01,06,29.60
2021,06,26,01,07,29.60
2021,06,26,01,08,29.50
2021,06,26,01,09,29.50
2021,06,26,01,10,29.40
2021,06,26,01,11,29.40
2021,06,26,01,12,29.40
2021,06,26,01,13,29.40
2021,06,26,01,14,29.40
2021,06,26,01,15,29.40
2021,06,26,01,16,29.40
2021,06,26,01,17,29.40
2021,06,26,01,18,29.40
2021,06,26,01,19,29.40
2021,06,26,01,20,29.40
2021,06,26,01,21,29.40
2021,06,26,01,22,29.40
2021,06,26,01,23,29.40
2021,06,26,01,24,29.40
2021,06,26,01,25,29.40
2021,06,26,01,26,29.40
2021,06,26,01,27,29.40
2021,06,26,01,28,29.40
2021,06,26,01,29,29.40
2021,06,26,01,30,29.30
2021,06,26,01,31,29.30
2021,06,26,01,32,29.30
2021,06,26,01,33,29.30
2021,06,26,01,34,29.30
2021,06,26,01,35,29.30
2021,06,26,01,36,29.30
2021,06,26,01,37,29.30
2021,06,26,01,38,29.20
2021,06,26,01,39,29.20
2021,06,26,01,40,29.20
2021,06,26,01,41,29.20
2021,06,26,01,42,29.10
2021,06,26,01,43,29.10
2021,06,26,01,44,29.10
2021,06,26,01,45,29.00
2021,06,26,01,46,29.00
2021,06,26,01,47,28.90
2021,06,26,01,48,28.90
2021,06,26,01,49,28.80
2021,06,26,01,50,28.80
2021,06,26,01,51,28.70
2021,06,26,01,52,28.70
2021,06,26,01,53,28.70
2021,06,26,01,54,28.60
2021,06,26,01,55,28.60
2021,06,26,01,56,28.60
2021,06,26,01,57,28.60
2021,06,26,01,58,28.60
2021,06,26,01,59,28.50
2021,06,26,02,00,28.60
2021,06,26,02,01,28.60
2021,06,26,02,02,28.60
2021,06,26,02,03,28.60
2021,06,26,02,04,28.60
2021,06,26,02,05,28.60
2021,06,26,02,06,28.60
2021,06,26,02,07,28.60
2021,06,26,02,08,28.50
2021,06,26,02,09,28.50
2021,06,26,02,10,28.50
2021,06,26,02,11,28.40
2021,06,26,02,12,28.40
2021,06,26,02,13,28.40
2021,06,26,02,14,28.40
2021,06,26,02,15,28.30
2021,06,26,02,16,28.30
2021,06,26,02,17,28.30
2021,06,26,02,18,28.30
2021,06,26,02,19,28.20
2021,06,26,02,20,28.20
2021,06,26,02,21,28.20
2021,06,26,02,22,28.10
2021,06,26,02,23,28.10
2021,06,26,02,24,28.00
2021,06,26,02,25,28.00
2021,06,26,02,26,27.90
2021,06,26,02,27,27.90
2021,06,26,02,28,27.90
2021,06,26,02,29,27.90
2021,06,26,02,30,27.80
2021,06,26,02,31,27.80
2021,06,26,02,32,27.80
2021,06,26,02,33,27.80
2021,06,26,02,34,27.80
2021,06,26,02,35,27.70
2021,06,26,02,36,27.70
2021,06,26,02,37,27.70
2021,06,26,02,38,27.70
2021,06,26,02,39,27.70
2021,06,26,02,40,27.70
2021,06,26,02,41,27.70
2021,06,26,02,42,27.70
2021,06,26,02,43,27.60
2021,06,26,02,44,27.60
2021,06,26,02,45,27.60
2021,06,26,02,46,27.60
2021,06,26,02,47,27.60
2021,06,26,02,48,27.60
2021,06,26,02,49,27.50
2021,06,26,02,50,27.50
2021,06,26,02,51,27.50
2021,06,26,02,52,27.40
2021,06,26,02,53,27.40
2021,06,26,02,54,27.40
2021,06,26,02,55,27.40
2021,06,26,02,56,27.40
2021,06,26,02,57,27.30
2021,06,26,02,58,27.30
2021,06,26,02,59,27.20
2021,06,26,03,00,27.20
2021,06,26,03,01,27.10
2021,06,26,03,02,27.10
2021,06,26,03,03,27.00
2021,06,26,03,04,27.00
2021,06,26,03,05,26.90
2021,06,26,03,06,26.90
2021,06,26,03,07,26.90
2021,06,26,03,08,26.90
2021,06,26,03,09,26.80
2021,06,26,03,10,26.80
2021,06,26,03,11,26.70
2021,06,26,03,12,26.60
2021,06,26,03,13,26.60
2021,06,26,03,14,26.50
2021,06,26,03,15,26.40
2021,06,26,03,16,26.30
2021,06,26,03,17,26.20
2021,06,26,03,18,26.10
2021,06,26,03,19,26.00
2021,06,26,03,20,25.90
2021,06,26,03,21,25.90
2021,06,26,03,22,25.90
2021,06,26,03,23,25.90
2021,06,26,03,24,25.80
2021,06,26,03,25,25.80
2021,06,26,03,26,25.80
2021,06,26,03,27,25.80
2021,06,26,03,28,25.80
2021,06,26,03,29,25.80
2021,06,26,03,30,25.80
2021,06,26,03,31,25.80
2021,06,26,03,32,25.80
2021,06,26,03,33,25.80
2021,06,26,03,34,25.80
2021,06,26,03,35,25.80
2021,06,26,03,36,25.80
2021,06,26,03,37,25.70
2021,06,26,03,38,25.70
2021,06,26,03,39,25.60
2021,06,26,03,40,25.60
2021,06,26,03,41,25.50
2021,06,26,03,42,25.40
2021,06,26,03,43,25.40
2021,06,26,03,44,25.40
2021,06,26,03,45,25.40
2021,06,26,03,46,25.40
2021,06,26,03,47,25.40
2021,06,26,03,48,25.40
2021,06,26,03,49,25.40
2021,06,26,03,50,25.40
2021,06,26,03,51,25.40
2021,06,26,03,52,25.40
2021,06,26,03,53,25.40
2021,06,26,03,54,25.30
2021,06,26,03,55,25.30
2021,06,26,03,56,25.30
2021,06,26,03,57,25.40
2021,06,26,03,58,25.40
2021,06,26,03,59,25.40
2021,06,26,04,00,25.40
2021,06,26,04,01,25.40
2021,06,26,04,02,25.30
2021,06,26,04,03,25.30
2021,06,26,04,04,25.30
2021,06,26,04,05,25.30
2021,06,26,04,06,25.30
2021,06,26,04,07,25.30
2021,06,26,04,08,25.30
2021,06,26,04,09,25.30
2021,06,26,04,10,25.30
2021,06,26,04,11,25.30
2021,06,26,04,12,25.30
2021,06,26,04,13,25.30
2021,06,26,04,14,25.30
2021,06,26,04,15,25.30
2021,06,26,04,16,25.30
2021,06,26,04,17,25.30
2021,06,26,04,18,25.30
2021,06,26,04,19,25.30
2021,06,26,04,20,25.20
2021,06,26,04,21,25.20
2021,06,26,04,22,25.20
2021,06,26,04,23,25.10
2021,06,26,04,24,25.10
2021,06,26,04,25,25.10
2021,06,26,04,26,25.10
2021,06,26,04,27,25.10
2021,06,26,04,28,25.10
2021,06,26,04,29,25.10
2021,06,26,04,30,25.10
2021,06,26,04,31,25.20
2021,06,26,04,32,25.20
2021,06,26,04,33,25.20
2021,06,26,04,34,25.30
2021,06,26,04,35,25.30
2021,06,26,04,36,25.30
2021,06,26,04,37,25.30
2021,06,26,04,38,25.30
2021,06,26,04,39,25.40
2021,06,26,04,40,25.40
2021,06,26,04,41,25.40
2021,06,26,04,42,25.50
2021,06,26,04,43,25.50
2021,06,26,04,44,25.60
2021,06,26,04,45,25.60
2021,06,26,04,46,25.60
2021,06,26,04,47,25.60
2021,06,26,04,48,25.50
2021,06,26,04,49,25.30
2021,06,26,04,50,25.20
2021,06,26,04,51,25.00
2021,06,26,04,52,24.80
2021,06,26,04,53,24.70
2021,06,26,04,54,24.60
2021,06,26,04,55,24.50
2021,06,26,04,56,24.40
2021,06,26,04,57,24.30
2021,06,26,04,58,24.30
2021,06,26,04,59,24.30
2021,06,26,05,00,24.20
2021,06,26,05,01,24.20
2021,06,26,05,02,24.20
2021,06,26,05,03,24.10
2021,06,26,05,04,24.10
2021,06,26,05,05,24.10
2021,06,26,05,06,24.10
2021,06,26,05,07,24.00
2021,06,26,05,08,24.00
2021,06,26,05,09,23.90
2021,06,26,05,10,23.90
2021,06,26,05,11,23.90
2021,06,26,05,12,23.90
2021,06,26,05,13,23.90
2021,06,26,05,14,23.80
2021,06,26,05,15,23.70
2021,06,26,05,16,23.60
2021,06,26,05,17,23.50
2021,06,26,05,18,23.30
2021,06,26,05,19,23.20
2021,06,26,05,20,23.10
2021,06,26,05,21,23.00
2021,06,26,05,22,22.90
2021,06,26,05,23,22.90
2021,06,26,05,24,22.90
2021,06,26,05,25,22.90
2021,06,26,05,26,22.90
2021,06,26,05,27,22.90
2021,06,26,05,28,22.90
2021,06,26,05,29,23.00
2021,06,26,05,30,23.10
2021,06,26,05,31,23.10
2021,06,26,05,32,23.20
2021,06,26,05,33,23.20
2021,06,26,05,34,23.20
2021,06,26,05,35,23.20
2021,06,26,05,36,23.20
2021,06,26,05,37,23.30
2021,06,26,05,38,23.30
2021,06,26,05,39,23.40
2021,06,26,05,40,23.40
2021,06,26,05,41,23.50
2021,06,26,05,42,23.50
2021,06,26,05,43,23.60
2021,06,26,05,44,23.70
2021,06,26,05,45,23.70
2021,06,26,05,46,23.80
2021,06,26,05,47,23.80
2021,06,26,05,48,23.90
2021,06,26,05,49,23.90
2021,06,26,05,50,23.90
2021,06,26,05,51,24.00
2021,06,26,05,52,24.00
2021,06,26,05,53,24.00
2021,06,26,05,54,24.10
2021,06,26,05,55,24.10
2021,06,26,05,56,24.20
2021,06,26,05,57,24.20
2021,06,26,05,58,24.30
2021,06,26,05,59,24.40
2021,06,26,06,00,24.40
2021,06,26,06,01,24.40
2021,06,26,06,02,24.40
2021,06,26,06,03,24.50
2021,06,26,06,04,24.50
2021,06,26,06,05,24.60
2021,06,26,06,06,24.60
2021,06,26,06,07,24.60
2021,06,26,06,08,24.60
2021,06,26,06,09,24.60
2021,06,26,06,10,24.60
2021,06,26,06,11,24.70
2021,06,26,06,12,24.70
2021,06,26,06,13,24.80
2021,06,26,06,14,24.90
2021,06,26,06,15,24.90
2021,06,26,06,16,25.00
2021,06,26,06,17,25.00
2021,06,26,06,18,25.00
2021,06,26,06,19,24.90
2021,06,26,06,20,24.90
2021,06,26,06,21,24.90
2021,06,26,06,22,24.90
2021,06,26,06,23,24.80
2021,06,26,06,24,24.80
2021,06,26,06,25,24.90
2021,06,26,06,26,24.90
2021,06,26,06,27,24.90
2021,06,26,06,28,24.90
2021,06,26,06,29,24.90
2021,06,26,06,30,24.90
2021,06,26,06,31,25.00
2021,06,26,06,32,25.00
2021,06,26,06,33,25.10
2021,06,26,06,34,25.10
2021,06,26,06,35,25.20
2021,06,26,06,36,25.30
2021,06,26,06,37,25.30
2021,06,26,06,38,25.40
2021,06,26,06,39,25.40
2021,06,26,06,40,25.50
2021,06,26,06,41,25.60
2021,06,26,06,42,25.70
2021,06,26,06,43,25.80
2021,06,26,06,44,25.90
2021,06,26,06,45,25.90
2021,06,26,06,46,25.90
2021,06,26,06,47,25.90
2021,06,26,06,48,26.00
2021,06,26,06,49,26.00
2021,06,26,06,50,26.10
2021,06,26,06,51,26.10
2021,06,26,06,52,26.10
2021,06,26,06,53,26.10
2021,06,26,06,54,26.20
2021,06,26,06,55,26.20
2021,06,26,06,56,26.20
2021,06,26,06,57,26.20
2021,06,26,06,58,26.10
2021,06,26,06,59,26.00
2021,06,26,07,00,25.90
2021,06,26,07,01,25.90
2021,06,26,07,02,25.90
2021,06,26,07,03,25.90
2021,06,26,07,04,25.80
2021,06,26,07,05,25.80
2021,06,26,07,06,25.80
2021,06,26,07,07,25.80
2021,06,26,07,08,25.80
2021,06,26,07,09,25.80
2021,06,26,07,10,25.80
2021,06,26,07,11,25.80
2021,06,26,07,12,25.80
2021,06,26,07,13,25.80
2021,06,26,07,14,25.80
2021,06,26,07,15,25.90
2021,06,26,07,16,25.90
2021,06,26,07,17,25.90
2021,06,26,07,18,25.90
2021,06,26,07,19,25.90
2021,06,26,07,20,25.90
2021,06,26,07,21,25.70
2021,06,26,07,22,25.60
2021,06,26,07,23,25.50
2021,06,26,07,24,25.30
2021,06,26,07,25,25.30
2021,06,26,07,26,25.20
2021,06,26,07,27,25.10
2021,06,26,07,28,25.00
2021,06,26,07,29,24.90
2021,06,26,07,30,24.90
2021,06,26,07,31,24.80
2021,06,26,07,32,24.80
2021,06,26,07,33,24.80
2021,06,26,07,34,24.90
2021,06,26,07,35,24.90
2021,06,26,07,36,24.90
2021,06,26,07,37,25.00
2021,06,26,07,38,25.00
2021,06,26,07,39,25.10
2021,06,26,07,40,25.10
2021,06,26,07,41,25.10
2021,06,26,07,42,25.20
2021,06,26,07,43,25.30
2021,06,26,07,44,25.40
2021,06,26,07,45,25.40
2021,06,26,07,46,25.50
2021,06,26,07,47,25.60
2021,06,26,07,48,25.60
2021,06,26,07,49,25.70
2021,06,26,07,50,25.70
2021,06,26,07,51,25.80
2021,06,26,07,52,25.80
2021,06,26,07,53,25.80
2021,06,26,07,54,25.80
2021,06,26,07,55,25.90
2021,06,26,07,56,25.90
2021,06,26,07,57,25.90
2021,06,26,07,58,25.90
2021,06,26,07,59,25.90
2021,06,26,08,00,25.90
2021,06,26,08,01,26.00
2021,06,26,08,02,26.00
2021,06,26,08,03,26.10
2021,06,26,08,04,26.20
2021,06,26,08,05,26.20
2021,06,26,08,06,26.30
2021,06,26,08,07,26.40
2021,06,26,08,08,26.40
2021,06,26,08,09,26.50
2021,06,26,08,10,26.60
2021,06,26,08,11,26.60
2021,06,26,08,12,26.60
2021,06,26,08,13,26.60
2021,06,26,08,14,26.60
2021,06,26,08,15,26.60
2021,06,26,08,16,26.60
2021,06,26,08,17,26.70
2021,06,26,08,18,26.70
2021,06,26,08,19,26.80
2021,06,26,08,20,26.80
2021,06,26,08,21,26.80
2021,06,26,08,22,26.80
2021,06,26,08,23,26.80
2021,06,26,08,24,26.80
2021,06,26,08,25,26.80
2021,06,26,08,26,26.90
2021,06,26,08,27,27.00
2021,06,26,08,28,27.10
2021,06,26,08,29,27.10
2021,06,26,08,30,27.20
2021,06,26,08,31,27.20
2021,06,26,08,32,27.20
2021,06,26,08,33,27.20
2021,06,26,08,34,27.20
2021,06,26,08,35,27.20
2021,06,26,08,36,27.30
2021,06,26,08,37,27.30
2021,06,26,08,38,27.30
2021,06,26,08,39,27.30
2021,06,26,08,40,27.30
2021,06,26,08,41,27.20
2021,06,26,08,42,27.20
2021,06,26,08,43,27.20
2021,06,26,08,44,27.30
2021,06,26,08,45,27.30
2021,06,26,08,46,27.30
2021,06,26,08,47,27.30
2021,06,26,08,48,27.40
2021,06,26,08,49,27.40
2021,06,26,08,50,27.50
2021,06,26,08,51,27.60
2021,06,26,08,52,27.70
2021,06,26,08,53,27.80
2021,06,26,08,54,27.80
2021,06,26,08,55,27.90
2021,06,26,08,56,28.00
2021,06,26,08,57,28.00
2021,06,26,08,58,28.00
2021,06,26,08,59,28.10
2021,06,26,09,00,28.10
2021,06,26,09,01,28.10
2021,06,26,09,02,28.10
2021,06,26,09,03,28.00
2021,06,26,09,04,27.90
2021,06,26,09,05,27.90
2021,06,26,09,06,27.80
2021,06,26,09,07,27.80
2021,06,26,09,08,27.80
2021,06,26,09,09,27.80
2021,06,26,09,10,27.90
2021,06,26,09,11,28.00
2021,06,26,09,12,28.00
2021,06,26,09,13,27.90
2021,06,26,09,14,27.90
2021,06,26,09,15,27.80
2021,06,26,09,16,27.70
2021,06,26,09,17,27.70
2021,06,26,09,18,27.60
2021,06,26,09,19,27.60
2021,06,26,09,20,27.50
2021,06,26,09,21,27.50
2021,06,26,09,22,27.60
2021,06,26,09,23,27.60
2021,06,26,09,24,27.70
2021,06,26,09,25,27.80
2021,06,26,09,26,27.80
2021,06,26,09,27,27.90
2021,06,26,09,28,28.00
2021,06,26,09,29,28.00
2021,06,26,09,30,28.00
2021,06,26,09,31,28.00
2021,06,26,09,32,27.90
2021,06,26,09,33,27.90
2021,06,26,09,34,27.80
2021,06,26,09,35,27.70
2021,06,26,09,36,27.60
2021,06,26,09,37,27.60
2021,06,26,09,38,27.60
2021,06,26,09,39,27.60
2021,06,26,09,40,27.60
2021,06,26,09,41,27.60
2021,06,26,09,42,27.60
2021,06,26,09,43,27.60
2021,06,26,09,44,27.50
2021,06,26,09,45,27.50
2021,06,26,09,46,27.60
2021,06,26,09,47,27.70
2021,06,26,09,48,27.80
2021,06,26,09,49,27.80
2021,06,26,09,50,27.80
2021,06,26,09,51,27.80
2021,06,26,09,52,27.80
2021,06,26,09,53,27.80
2021,06,26,09,54,27.90
2021,06,26,09,55,28.00
2021,06,26,09,56,27.90
2021,06,26,09,57,28.00
2021,06,26,09,58,28.00
2021,06,26,09,59,28.10
2021,06,26,10,00,28.00
2021,06,26,10,01,27.90
2021,06,26,10,02,27.90
2021,06,26,10,03,27.90
2021,06,26,10,04,27.90
2021,06,26,10,05,28.00
2021,06,26,10,06,28.10
2021,06,26,10,07,28.00
2021,06,26,10,08,28.00
2021,06,26,10,09,28.00
2021,06,26,10,10,28.00
2021,06,26,10,11,28.00
2021,06,26,10,12,27.90
2021,06,26,10,13,27.90
2021,06,26,10,14,27.80
2021,06,26,10,15,27.80
2021,06,26,10,16,27.90
2021,06,26,10,17,27.90
2021,06,26,10,18,27.90
2021,06,26,10,19,27.90
2021,06,26,10,20,27.90
2021,06,26,10,21,27.90
2021,06,26,10,22,28.00
2021,06,26,10,23,28.10
2021,06,26,10,24,28.10
2021,06,26,10,25,28.10
2021,06,26,10,26,28.10
2021,06,26,10,27,28.20
2021,06,26,10,28,28.30
2021,06,26,10,29,28.40
2021,06,26,10,30,28.50
2021,06,26,10,31,28.60
2021,06,26,10,32,28.60
2021,06,26,10,33,28.70
2021,06,26,10,34,28.70
2021,06,26,10,35,28.80
2021,06,26,10,36,28.90
2021,06,26,10,37,29.00
2021,06,26,10,38,29.00
2021,06,26,10,39,29.00
2021,06,26,10,40,29.00
2021,06,26,10,41,29.10
2021,06,26,10,42,29.10
2021,06,26,10,43,29.10
2021,06,26,10,44,29.10
2021,06,26,10,45,29.10
2021,06,26,10,46,29.10
2021,06,26,10,47,29.10
2021,06,26,10,48,29.20
2021,06,26,10,49,29.20
2021,06,26,10,50,29.20
2021,06,26,10,51,29.20
2021,06,26,10,52,29.20
2021,06,26,10,53,29.30
2021,06,26,10,54,29.40
2021,06,26,10,55,29.50
2021,06,26,10,56,29.60
2021,06,26,10,57,29.70
2021,06,26,10,58,29.80
2021,06,26,10,59,29.80
2021,06,26,11,00,29.80
2021,06,26,11,01,29.70
2021,06,26,11,02,29.60
2021,06,26,11,03,29.60
2021,06,26,11,04,29.60
2021,06,26,11,05,29.60
2021,06,26,11,06,29.70
2021,06,26,11,07,29.70
2021,06,26,11,08,29.70
2021,06,26,11,09,29.80
2021,06,26,11,10,29.90
2021,06,26,11,11,29.90
2021,06,26,11,12,29.90
2021,06,26,11,13,29.90
2021,06,26,11,14,29.90
2021,06,26,11,15,29.90
2021,06,26,11,16,29.90
2021,06,26,11,17,29.80
2021,06,26,11,18,29.80
2021,06,26,11,19,29.80
2021,06,26,11,20,29.90
2021,06,26,11,21,29.90
2021,06,26,11,22,30.00
2021,06,26,11,23,30.10
2021,06,26,11,24,30.10
2021,06,26,11,25,30.10
2021,06,26,11,26,30.10
2021,06,26,11,27,30.20
2021,06,26,11,28,30.20
2021,06,26,11,29,30.20
2021,06,26,11,30,30.20
2021,06,26,11,31,30.30
2021,06,26,11,32,30.50
2021,06,26,11,33,30.50
2021,06,26,11,34,30.60
2021,06,26,11,35,30.60
2021,06,26,11,36,30.60
2021,06,26,11,37,30.60
2021,06,26,11,38,30.60
2021,06,26,11,39,30.60
2021,06,26,11,40,30.60
2021,06,26,11,41,30.40
2021,06,26,11,42,30.20
2021,06,26,11,43,30.10
2021,06,26,11,44,30.10
2021,06,26,11,45,30.10
2021,06,26,11,46,30.00
2021,06,26,11,47,30.00
2021,06,26,11,48,29.90
2021,06,26,11,49,29.80
2021,06,26,11,50,29.80
2021,06,26,11,51,29.80
2021,06,26,11,52,29.90
2021,06,26,11,53,30.00
2021,06,26,11,54,30.10
2021,06,26,11,55,30.20
2021,06,26,11,56,30.30
2021,06,26,11,57,30.40
2021,06,26,11,58,30.30
2021,06,26,11,59,30.30
2021,06,26,12,00,30.20
2021,06,26,12,01,30.20
2021,06,26,12,02,30.20
2021,06,26,12,03,30.30
2021,06,26,12,04,30.20
2021,06,26,12,05,30.30
2021,06,26,12,06,30.30
2021,06,26,12,07,30.30
2021,06,26,12,08,30.30
2021,06,26,12,09,30.30
2021,06,26,12,10,30.30
2021,06,26,12,11,30.30
2021,06,26,12,12,30.30
2021,06,26,12,13,30.30
2021,06,26,12,14,30.30
2021,06,26,12,15,30.40
2021,06,26,12,16,30.40
2021,06,26,12,17,30.50
2021,06,26,12,18,30.60
2021,06,26,12,19,30.70
2021,06,26,12,20,30.80
2021,06,26,12,21,30.70
2021,06,26,12,22,30.70
2021,06,26,12,23,30.60
2021,06,26,12,24,30.60
2021,06,26,12,25,30.60
2021,06,26,12,26,30.60
2021,06,26,12,27,30.50
2021,06,26,12,28,30.40
2021,06,26,12,29,30.50
2021,06,26,12,30,30.60
2021,06,26,12,31,30.60
2021,06,26,12,32,30.60
2021,06,26,12,33,30.60
2021,06,26,12,34,30.70
2021,06,26,12,35,30.80
2021,06,26,12,36,30.80
2021,06,26,12,37,30.80
2021,06,26,12,38,30.90
2021,06,26,12,39,30.90
2021,06,26,12,40,30.80
2021,06,26,12,41,30.80
2021,06,26,12,42,30.80
2021,06,26,12,43,30.80
2021,06,26,12,44,30.80
2021,06,26,12,45,30.80
2021,06,26,12,46,30.90
2021,06,26,12,47,31.00
2021,06,26,12,48,31.10
2021,06,26,12,49,31.20
2021,06,26,12,50,31.20
2021,06,26,12,51,31.20
2021,06,26,12,52,31.20
2021,06,26,12,53,31.20
2021,06,26,12,54,31.20
2021,06,26,12,55,31.20
2021,06,26,12,56,31.20
2021,06,26,12,57,31.20
2021,06,26,12,58,31.30
2021,06,26,12,59,31.40
2021,06,26,13,00,31.50
2021,06,26,13,01,31.60
2021,06,26,13,02,31.70
2021,06,26,13,03,31.70
2021,06,26,13,04,31.70
2021,06,26,13,05,31.80
2021,06,26,13,06,31.80
2021,06,26,13,07,31.90
2021,06,26,13,08,31.90
2021,06,26,13,09,31.90
2021,06,26,13,10,32.00
2021,06,26,13,11,32.10
2021,06,26,13,12,32.10
2021,06,26,13,13,32.30
2021,06,26,13,14,32.30
2021,06,26,13,15,32.30
2021,06,26,13,16,32.40
2021,06,26,13,17,32.30
2021,06,26,13,18,32.30
2021,06,26,13,19,32.20
2021,06,26,13,20,32.30
2021,06,26,13,21,32.30
2021,06,26,13,22,32.30
2021,06,26,13,23,32.30
2021,06,26,13,24,32.30
2021,06,26,13,25,32.30
2021,06,26,13,26,32.40
2021,06,26,13,27,32.40
2021,06,26,13,28,32.40
2021,06,26,13,29,32.40
2021,06,26,13,30,32.30
2021,06,26,13,31,32.20
2021,06,26,13,32,32.20
2021,06,26,13,33,32.20
2021,06,26,13,34,32.20
2021,06,26,13,35,32.30
2021,06,26,13,36,32.30
2021,06,26,13,37,32.40
2021,06,26,13,38,32.30
2021,06,26,13,39,32.30
2021,06,26,13,40,32.30
2021,06,26,13,41,32.30
2021,06,26,13,42,32.30
2021,06,26,13,43,32.30
2021,06,26,13,44,32.20
2021,06,26,13,45,32.30
2021,06,26,13,46,32.30
2021,06,26,13,47,32.30
2021,06,26,13,48,32.50
2021,06,26,13,49,32.60
2021,06,26,13,50,32.70
2021,06,26,13,51,32.70
2021,06,26,13,52,32.70
2021,06,26,13,53,32.70
2021,06,26,13,54,32.80
2021,06,26,13,55,32.80
2021,06,26,13,56,32.90
2021,06,26,13,57,33.00
2021,06,26,13,58,33.10
2021,06,26,13,59,33.20
2021,06,26,14,00,33.30
2021,06,26,14,01,33.30
2021,06,26,14,02,33.30
2021,06,26,14,03,33.30
2021,06,26,14,04,33.20
2021,06,26,14,05,33.10
2021,06,26,14,06,33.00
2021,06,26,14,07,32.90
2021,06,26,14,08,33.00
2021,06,26,14,09,33.10
2021,06,26,14,10,33.20
2021,06,26,14,11,33.20
2021,06,26,14,12,33.30
2021,06,26,14,13,33.20
2021,06,26,14,14,33.20
2021,06,26,14,15,33.20
2021,06,26,14,16,33.30
2021,06,26,14,17,33.30
2021,06,26,14,18,33.30
2021,06,26,14,19,33.40
2021,06,26,14,20,33.50
2021,06,26,14,21,33.60
2021,06,26,14,22,33.60
2021,06,26,14,23,33.60
2021,06,26,14,24,33.60
2021,06,26,14,25,33.60
2021,06,26,14,26,33.60
2021,06,26,14,27,33.60
2021,06,26,14,28,33.60
2021,06,26,14,29,33.60
2021,06,26,14,30,33.60
2021,06,26,14,31,33.50
2021,06,26,14,32,33.40
2021,06,26,14,33,33.40
2021,06,26,14,34,33.30
2021,06,26,14,35,33.30
2021,06,26,14,36,33.30
2021,06,26,14,37,33.30
2021,06,26,14,38,33.30
2021,06,26,14,39,33.40
2021,06,26,14,40,33.60
2021,06,26,14,41,33.60
2021,06,26,14,42,33.70
2021,06,26,14,43,33.70
2021,06,26,14,44,33.80
2021,06,26,14,45,33.90
2021,06,26,14,46,33.80
2021,06,26,14,47,33.90
2021,06,26,14,48,33.80
2021,06,26,14,49,33.80
2021,06,26,14,50,33.80
2021,06,26,14,51,33.80
2021,06,26,14,52,33.80
2021,06,26,14,53,33.70
2021,06,26,14,54,33.70
2021,06,26,14,55,33.70
2021,06,26,14,56,33.70
2021,06,26,14,57,33.70
2021,06,26,14,58,33.70
2021,06,26,14,59,33.80
2021,06,26,15,00,33.80
2021,06,26,15,01,33.80
2021,06,26,15,02,33.80
2021,06,26,15,03,33.80
2021,06,26,15,04,33.90
2021,06,26,15,05,33.90
2021,06,26,15,06,33.90
2021,06,26,15,07,34.00
2021,06,26,15,08,34.10
2021,06,26,15,09,34.20
2021,06,26,15,10,34.20
2021,06,26,15,11,34.20
2021,06,26,15,12,34.20
2021,06,26,15,13,34.30
2021,06,26,15,14,34.30
2021,06,26,15,15,34.30
2021,06,26,15,16,34.30
2021,06,26,15,17,34.30
2021,06,26,15,18,34.20
2021,06,26,15,19,34.20
2021,06,26,15,20,34.20
2021,06,26,15,21,34.20
2021,06,26,15,22,34.30
2021,06,26,15,23,34.40
2021,06,26,15,24,34.50
2021,06,26,15,25,34.50
2021,06,26,15,26,34.50
2021,06,26,15,27,34.40
2021,06,26,15,28,34.40
2021,06,26,15,29,34.40
2021,06,26,15,30,34.30
2021,06,26,15,31,34.30
2021,06,26,15,32,34.30
2021,06,26,15,33,34.30
2021,06,26,15,34,34.20
2021,06,26,15,35,34.10
2021,06,26,15,36,34.10
2021,06,26,15,37,34.10
2021,06,26,15,38,34.20
2021,06,26,15,39,34.20
2021,06,26,15,40,34.30
2021,06,26,15,41,34.30
2021,06,26,15,42,34.30
2021,06,26,15,43,34.40
2021,06,26,15,44,34.40
2021,06,26,15,45,34.40
2021,06,26,15,46,34.40
2021,06,26,15,47,34.40
2021,06,26,15,48,34.40
2021,06,26,15,49,34.30
2021,06,26,15,50,34.30
2021,06,26,15,51,34.40
2021,06,26,15,52,34.50
2021,06,26,15,53,34.60
2021,06,26,15,54,34.60
2021,06,26,15,55,34.70
2021,06,26,15,56,34.70
2021,06,26,15,57,34.80
2021,06,26,15,58,34.80
2021,06,26,15,59,34.80
2021,06,26,16,00,34.70
2021,06,26,16,01,34.70
2021,06,26,16,02,34.70
2021,06,26,16,03,34.80
2021,06,26,16,04,34.80
2021,06,26,16,05,34.70
2021,06,26,16,06,34.70
2021,06,26,16,07,34.60
2021,06,26,16,08,34.60
2021,06,26,16,09,34.60
2021,06,26,16,10,34.60
2021,06,26,16,11,34.60
2021,06,26,16,12,34.50
2021,06,26,16,13,34.40
2021,06,26,16,14,34.30
2021,06,26,16,15,34.30
2021,06,26,16,16,34.30
2021,06,26,16,17,34.30
2021,06,26,16,18,34.30
2021,06,26,16,19,34.30
2021,06,26,16,20,34.40
2021,06,26,16,21,34.50
2021,06,26,16,22,34.60
2021,06,26,16,23,34.70
2021,06,26,16,24,34.70
2021,06,26,16,25,34.80
2021,06,26,16,26,34.70
2021,06,26,16,27,34.70
2021,06,26,16,28,34.70
2021,06,26,16,29,34.80
2021,06,26,16,30,34.80
2021,06,26,16,31,34.70
2021,06,26,16,32,34.70
2021,06,26,16,33,34.70
2021,06,26,16,34,34.70
2021,06,26,16,35,34.80
2021,06,26,16,36,34.80
2021,06,26,16,37,34.80
2021,06,26,16,38,34.80
2021,06,26,16,39,34.70
2021,06,26,16,40,34.70
2021,06,26,16,41,34.70
2021,06,26,16,42,34.60
2021,06,26,16,43,34.60
2021,06,26,16,44,34.60
2021,06,26,16,45,34.50
2021,06,26,16,46,34.50
2021,06,26,16,47,34.40
2021,06,26,16,48,34.40
2021,06,26,16,49,34.40
2021,06,26,16,50,34.40
2021,06,26,16,51,34.40
2021,06,26,16,52,34.40
2021,06,26,16,53,34.40
2021,06,26,16,54,34.40
2021,06,26,16,55,34.30
2021,06,26,16,56,34.40
2021,06,26,16,57,34.40
2021,06,26,16,58,34.40
2021,06,26,16,59,34.50
2021,06,26,17,00,34.60
2021,06,26,17,01,34.60
2021,06,26,17,02,34.70
2021,06,26,17,03,34.80
2021,06,26,17,04,34.90
2021,06,26,17,05,34.90
2021,06,26,17,06,34.90
2021,06,26,17,07,34.90
2021,06,26,17,08,34.90
2021,06,26,17,09,34.90
2021,06,26,17,10,35.00
2021,06,26,17,11,35.10
2021,06,26,17,12,35.10
2021,06,26,17,13,35.20
2021,06,26,17,14,35.20
2021,06,26,17,15,35.20
2021,06,26,17,16,35.30
2021,06,26,17,17,35.30
2021,06,26,17,18,35.30
2021,06,26,17,19,35.30